OBJECT BD, 61786

Orbit data source: Space-Track

You're viewing an Uncataloged Satellite

Recently launched and/or uncataloged satellites may have evolving metadata. Metadata may include but not limited to: Owner, Maufacturer, Bus, Motor, and Mission.

OBJECT BD, 61786 is a satellite in SSO that was launched on Mon, 04 Nov 2024 UTC via a SOYUZ-2-1B launch vehicle from the Vostochny Cosmodrome (VOSTO). Unknown objects in Earth's orbit typically refer to objects detected orbiting the Earth but have not yet been identified or cataloged. These objects could be anything from previously untracked satellites, spent rocket stages, debris from satellite collisions, or even natural meteoroids temporarily captured by Earth's gravity.

Loading next visibility...
Identifier
61786, 2024-199BD
Orbit
SSO
Country
Flag of TBDTBD
Related business
Manufacturer
Sputniks
Mission
Operational Commercial Communications
Bus & Motor
CUBESAT 3U?, Unknown motor
Mass
3 kg wet, 3 kg dry
Launch date (UTC)
2024-11-04 (2 years ago)
Launch vehicle
SOYUZ-2-1B
Launch site
Vostochny Cosmodrome (VOSTO)
Object type
Unknown
Shape & HBR
Box, 0.1 m
Radar Cross Section
0.035 m², Small (<0.1 m²)

Expand to show TLE details & history
Last TLE update: 6 hours ago

TLE from 6 hours ago
0 OBJECT BD
1 61786U 24199BD  26128.17185858  .00016399  00000-0  32749-3 0  9991
2 61786  97.2999   2.0406 0011579  82.5109 277.7456 15.46829341128120
Epoch: 2026-05-08T04:07Z
TLE epoch observation values (Epoch: 2026-05-08T04:07:28.581Z)
Latitude
-0.00002°
Longitude
74.16405°
Altitude
428.085 km
Speed
7.655 km/s
True Right ascension
00h 08m 09s
True Declination
0° 00' 00"
Sunlit
Object was in daylight at epoch
Visualization orbit readout
Latitude
Unknown
Longitude
Unknown
Altitude
Unknown
Speed
Unknown
Apparent Right ascension
Unknown
Apparent Declination
Unknown
Sunlit
N/A
Visualization observer readout
Local Sidereal Time
17:50:18
Azimuth
Unknown
Elevation
Unknown
Doppler factor
Unknown
Orbital elements
Apogee altitude
430.809 km
Perigee altitude
415.059 km
Semi-major axis
6,801.071 km
Eccentricity
0.00116
Inclination
97.2999°
RAAN
2.0406°
Arg. of periapsis
82.5109°
True anomaly
277.6141°
Mean anomaly
277.7456°
Eccentric anomaly
277.67985°
Mean motion
3.8697 °/min
Orbital period
93.03 mins
BSTAR
0.00032749
Loading maneuver chart data...
Computing Atmospheric mass density...
Loading historical data...
Loading historical data...
Loading historical data...
Loading historical data...
Loading historical data...
Loading historical data...
Loading historical data...

Documentation

Showing up to 5 results
|